www.pogodaiklimat.ru

Погода и климат >> Архив погоды >> Россия >> Мурманская область >> Апатиты


ПОГОДА в Апатитах

  • Прогноз погоды в Апатитах
  • Монитор погоды в Апатитах

АРХИВ ПОГОДЫ в Апатитах

Время (UTC), дата Ветер
(напр.,м/с)
 
Видим.   Явления Облачность Т
(С)
Тd
(С)
f
(%)
Тe
(С)
Тes
(С)
Комфортность P
(гПа)
Po
(гПа)
Тmin
(С)
Tmax
(С)
R
(мм)
R24
(мм)
S
(см)
00 18.03 В 3 4000 м слаб. ливневой снег 10/8 300 м
[Cb cap Ac As]
-2.0 -2.7 95 -7 -7 1006.2 989.4
06 18.03 В 5 2000 м ливневой снег 10/10 300 м
[Cb cap]
-1.6 -2.4 94 -8 -8 1005.7 988.9 -2.4 2 74
12 18.03 В 6-10
{11}
2000 м ливневой снег {метель} 10/10 300 м
[Cb cap]
-0.5 -1.5 93 -7 -7 1003.0 986.2
18 18.03 В 5-6
{11}
1000 м ливневой снег {метель} 10/10 200 м
[Cb cap]
-0.6 -0.9 98 -7 -7 999.6 983.0 -0.1 4
00 19.03 Ю 2 20 км {ливн. осадки} 10/10 200 м
[St]
0.0 -0.1 99 -4 -4 1000.4 983.8
06 19.03 З 1 2000 м слаб. снег 10/10 200 м
[Frnb Ns]
-0.7 -0.8 99 -3 -3 1002.0 985.4 -0.7 2 79
12 19.03 СЗ 5 1000 м ливневой снег 9/9 200 м
[Cb cap Ac trans]
+0.3 0.0 98 -6 -6 1004.8 988.2
18 19.03 СЗ 6-9
{10}
20 км позёмок {ливн. осадки} 8/4 600 м
[Sc diur, vesp Ac trans Ci fib]
-2.6 -4.1 89 -10 -10 1009.7 992.8 +0.6 1
00 20.03 С 1 20 км {метель} 3/3 600 м
[Sc]
-10.8 -11.4 95 -13 -13 1011.1 993.7
06 20.03 штиль 0 20 км [диам. изморози 4 мм] 3/3 600 м
[Sc Ci fib]
-11.8 -12.8 92 -12 -11 1010.8 993.3 -18.0 81
12 20.03 З 1 50 км 9/4 600 м
[Sc Ac trans]
-1.2 -6.5 67 -3 -2 1008.3 991.5
18 20.03 штиль 0 50 км {снег} 10/10 600 м
[Sc]
-3.6 -5.9 84 -5 -5 1007.3 990.3 +0.9 0.0
00 21.03 В 1 4000 м слаб. ливневой снег 9/8 600 м
[Cb cap Ac trans]
-4.8 -5.9 92 -7 -7 1006.4 989.4
06 21.03 В 1 4000 м слаб. ливневой снег 9/6 300 м
[Cb cap Ac As Ci fib]
-4.1 -5.1 93 -7 -6 1005.4 988.5 -7.0 1 78
12 21.03 З 1 20 км {ливн. осадки} 10/8 600 м
[Sc Ac As]
-1.2 -3.8 82 -3 -3 1004.3 987.6
18 21.03 В 2 4000 м слаб. снег 10/10 300 м
[Frnb Ns]
-2.8 -3.9 92 -7 -7 1001.5 984.7 -0.8 0.4
00 22.03 СЗ 1 20 км {снег} 10/8 300 м
[St Ac As]
-3.1 -4.1 93 -5 -5 1001.0 984.2
06 22.03 ЮЗ 1 20 км {снег} 9/8 300 м
[St Ac trans]
-2.7 -4.7 86 -5 -5 1007.8 990.9 -6.0 0.0 78
12 22.03 З 4 50 км {метель} ясно +1.6 -5.9 57 -3 -1 1015.0 998.3
18 22.03 ЮЗ 1 50 км 1/0
[Ac trans]
-6.6 -8.6 86 -9 -9 1017.3 999.9 +2.3
21 22.03 н/о +11.0 -20.4 1080.4 271
00 23.03 ЮВ 2 20 км 9/4 600 м
[Sc Ac As]
-4.1 -8.4 72 -8 -8 1012.9 995.8
06 23.03 ЮВ 4 500 м сильн. снег 10/10 200 м
[Frnb Ns]
-3.4 -4.1 95 -10 -10 1002.7 985.9 -10.7 2 76
12 23.03 ЮВ 2 1000 м снег {метель} 10/10 200 м
[Frnb Ns]
-1.0 -1.5 96 -5 -5 992.0 975.4
18 23.03 Ю 2 20 км {снег, метель} 9/9 300 м
[St]
+0.6 -0.5 92 -3 -3 987.9 971.6 +0.9 11
00 24.03 ЮВ 2 20 км 4/4 600 м
[Sc]
-1.3 -3.0 88 -5 -5 986.0 969.6
06 24.03 ЮВ 4 20 км 10/8 600 м
[Sc Ac As]
-2.2 -3.7 89 -8 -8 984.4 967.9 -4.5 83
12 24.03 ЮВ 2 4000 м слаб. ливневой снег 10/8 300 м
[Cb cap Ac As]
+0.4 -1.2 89 -3 -3 984.2 967.9
18 24.03 СЗ 3 20 км {ливн. осадки} 9/8 600 м
[Cb cap Ac trans]
-1.0 -1.8 94 -6 -6 987.7 971.3 +1.0 3

 

Местоположение метеостанции Апатиты (Мурманская область, Россия): широта 67.55 долгота 33.35 высота над уровнем моря 134 м.

В архиве по умолчанию представлена погода в Апатитах за последнюю неделю. Архивные данные за месяц целиком и за предыдущие месяцы, начиная с января 2011 года, Вы можете получить, выбрав интересующий диапазон дат из раскрывающегося списка и нажав кнопку "Ввод!".


*Определитесь, кто Вы:
робот инопланетянин человек

Внимание! Время в таблицах - всемирное. Для получения местного времени необходимо прибавить поправку, которая равна 3 ч.

Смотрите также архив погоды в соседних городах и на ближайших метеорологических станциях:

Погода в Кировске (Мурманская область, Россия) (16 км)
Погода в Зашейке (Мурманская область, Россия) (38 км)
Погода в Умбозере (Мурманская область, Россия) (41 км)
Погода в Мончегорске (Мурманская область, Россия) (46 км)
Погода в Порту Кандалакша (Мурманская область, Россия) (61 км)
Погода в Кандалакше (Мурманская область, Россия) (62 км)
Погода в Порту Витино (Мурманская область, Россия) (68 км)
Погода в Ловозере (Мурманская область, Россия) (87 км)
Погода в Пулозере (Мурманская область, Россия) (89 км)
Погода в Ковде (Мурманская область, Россия) (97 км)

Пояснения к столбцам:

Ветер - указаны скорость ветра в м/с - средняя за 10 мин, порывы в срок и между сроками (в фигурных скобках) и направление, откуда дует ветер: С - северный, СВ - северо-восточный, В - восточный, ЮВ - юго-восточный, Ю - южный, ЮЗ - юго-западный, З - западный, СЗ - северо-западный.
Видимость - горизонтальная дальность видимости в метрах или километрах. При видимости от 1 до 10 км при отсутствии осадков обычно наблюдается дымка, при ухудшении видимости до 1 км и менее - туман. В сухую погоду видимость может ухудшаться дымом, пылью или мглою.
Явления - указаны атмосферные явления, наблюдавшиеся в срок или в последний час перед сроком; фигурными скобками обозначены явления, наблюдавшиеся между сроками (за 1-3 часа до срока); квадратными скобками обозначены град или гололедные отложения с указанием их диаметра в мм.
Облачность - указаны через наклонную черту общая и нижняя облачность в баллах и высота нижней границы облаков в метрах; квадратными скобками обозначены формы облаков: Ci - перистые, Cs - перисто-слоистые, Cc - перисто-кучевые, Ac - высококучевые, As - высокослоистые, Sc - слоисто-кучевые, Ns - слоисто-дождевые, Cu - кучевые, Cb - кучево-дождевые. Подробнее классификацию облаков см. в Атласе облаков (PDF).
T - Температура воздуха - температура, измеренная на высоте 2 м над землей.
Td - Температура точки росы - температура, при понижении до которой содержащийся в воздухе водяной пар достигнет насыщения.
f - Относительная влажность воздуха - влажноcть воздуха, измеренная на высоте 2 м над землей.
Te - Эффективная температура - температура, которую ощущает одетый по сезону человек в тени. Характеристика душности погоды. При расчете учитывается влияние влажности воздуха и скорости ветра на теплоощущения человека.
Tes - Эффективная температура на солнце - температура, которую ощущает человек, с поправкой на солнечный нагрев. Характеристика знойности погоды. Зависит от высоты солнца над горизонтом, облачности и скорости ветра. Ночью, в пасмурную погоду, а также при ветре 12 м/с и более поправка равна нулю.
P - Атмосферное давление - приведенное к уровню моря атмосферное давление.
Po - Атмосферное давление - измеренное на уровне метеостанции атмосферное давление.
Tmin - Минимальная температура - минимум температуры воздуха на высоте 2 м над землей.
Tmax - Максимальная температура - максимум температуры воздуха на высоте 2 м над землей.
R - Количество осадков - Количество выпавших осадков за период времени, мм. При наведении курсора мыши на число - период времени, за который выпало указанное количество осадков.
R24 - Количество осадков - Количество выпавших осадков за 24 часа, мм.
S - Снежный покров - Высота снежного покрова, см. При наведении курсора мыши на число - состояние снежного покрова и степень покрытия местности в баллах.